Sheboygan, WI

3:20 AM CDT on July 23, 2017 (GMT -0500)
Sheboygan County Memorial

Weather History for KSBM - April, 2013

Change the Weather History Date:

Saturday, April 13, 2013

  Actual Average Record
Temperature  
Mean Temperature 34 °F -  
Max Temperature 37 °F 51 °F 82 °F (1977)
Min Temperature 32 °F 35 °F 19 °F (1950)
Degree Days  
Heating Degree Days 30    
Moisture  
Dew Point 29 °F    
Average Humidity 84    
Maximum Humidity 100    
Minimum Humidity 62    
Precipitation  
Precipitation 0.00 in - - ()
Sea Level Pressure  
Sea Level Pressure 29.83 in    
Wind  
Wind Speed 11 mph (West)    
Max Wind Speed 20 mph    
Max Gust Speed 29 mph    
Visibility 8 miles    
Events Snow    
Averages and records for this station are not official NWS values.
T = Trace of Precipitation, MM = Missing Value Source: NWS Daily Summary

Daily Weather History Graph

Daily Weather History Graph

Search for Another Location

Airport or City:

Trip Planner

Search our weather history database for the weather conditions in past years. The results will help you decide how hot, cold, wet, or windy it might be!

Date:

Astronomy

Apr. 13, 2013 Rise Set
Actual Time 6:11 AM CDT 7:32 PM CDT
Civil Twilight 5:41 AM CDT 8:02 PM CDT
Nautical Twilight 5:05 AM CDT 8:38 PM CDT
Astronomical Twilight 4:27 AM CDT 9:17 PM CDT
Moon 7:57 AM CDT (4/13) 11:02 PM CDT (4/13)
Length of Visible Light 14h 21m
Length of Day
13h 21m
Waxing Crescent, 10% of the Moon is Illuminated
Apr 13
Waxing Crescent
Apr 18
First Quarter
Apr 25
Full
May 2
Last Quarter
May 9
New

Hourly Weather History & Observations

Time (CDT) Temp. Windchill Dew Point Humidity Pressure Visibility Wind Dir Wind Speed Gust Speed Precip Events Conditions
12:00 AM 33.8 °F 25.3 °F 32.0 °F 93% 29.75 in 10.0 mi West 11.5 mph - N/A   Overcast
12:25 AM 33.8 °F 28.6 °F 33.8 °F 100% 29.76 in 4.0 mi WSW 5.8 mph - N/A   Overcast
12:36 AM 33.8 °F 27.7 °F 33.8 °F 100% 29.76 in 7.0 mi WSW 6.9 mph - N/A   Overcast
12:43 AM 33.8 °F 27.7 °F 33.8 °F 100% 29.76 in 8.0 mi WSW 6.9 mph - N/A   Overcast
12:53 AM 34.0 °F 28.0 °F 32.0 °F 92% 29.78 in 7.0 mi WSW 6.9 mph - N/A   Overcast
1:40 AM 33.8 °F 26.4 °F 32.0 °F 93% 29.76 in 10.0 mi WSW 9.2 mph - N/A   Overcast
1:53 AM 33.1 °F 25.5 °F 30.9 °F 92% 29.78 in 10.0 mi WSW 9.2 mph - N/A   Overcast
2:20 AM 33.8 °F 27.0 °F 32.0 °F 93% 29.75 in 10.0 mi WSW 8.1 mph - N/A   Overcast
2:53 AM 33.1 °F 24.4 °F 30.9 °F 92% 29.77 in 10.0 mi WSW 11.5 mph - N/A   Overcast
3:53 AM 33.1 °F 26.1 °F 30.9 °F 92% 29.77 in 10.0 mi WSW 8.1 mph - N/A   Overcast
4:53 AM 33.1 °F 24.9 °F 30.9 °F 92% 29.75 in 8.0 mi WSW 10.4 mph - 0.00 in   Overcast
5:20 AM 33.8 °F 26.4 °F 30.2 °F 87% 29.73 in 10.0 mi WSW 9.2 mph - 0.00 in   Overcast
5:53 AM 33.1 °F 23.9 °F 30.0 °F 89% 29.76 in 10.0 mi WSW 12.7 mph - 0.00 in   Overcast
6:53 AM 33.1 °F 24.4 °F 30.0 °F 89% 29.77 in 10.0 mi West 11.5 mph - 0.00 in   Overcast
7:27 AM 32.0 °F 24.2 °F 30.2 °F 93% 29.76 in 0.8 mi WNW 9.2 mph 19.6 mph 0.00 in Snow Light Snow
7:37 AM 32.0 °F 23.0 °F 30.2 °F 93% 29.76 in 2.0 mi West 11.5 mph - 0.00 in Snow Light Snow
7:45 AM 33.8 °F 24.8 °F 30.2 °F 87% 29.76 in 7.0 mi West 12.7 mph - 0.00 in Snow Light Snow
7:53 AM 32.0 °F 22.5 °F 30.0 °F 92% 29.79 in 6.0 mi West 12.7 mph - 0.00 in Snow Light Snow
8:03 AM 32.0 °F 22.1 °F 28.4 °F 87% 29.77 in 4.0 mi West 13.8 mph - 0.00 in Snow Light Snow
8:28 AM 32.0 °F 21.6 °F 28.4 °F 87% 29.78 in 2.5 mi West 15.0 mph 21.9 mph 0.00 in Snow Light Snow
8:41 AM 32.0 °F 23.0 °F 28.4 °F 87% 29.78 in 6.0 mi WNW 11.5 mph - 0.00 in Snow Light Snow
8:48 AM 32.0 °F 22.1 °F 28.4 °F 87% 29.78 in 9.0 mi WNW 13.8 mph 19.6 mph 0.00 in   Overcast
8:53 AM 32.0 °F 22.1 °F 27.0 °F 82% 29.80 in 10.0 mi West 13.8 mph - 0.00 in   Overcast
9:42 AM 33.8 °F 23.5 °F 26.6 °F 75% 29.79 in 10.0 mi West 16.1 mph 26.5 mph N/A   Overcast
9:53 AM 34.0 °F 23.0 °F 27.0 °F 75% 29.82 in 10.0 mi WNW 18.4 mph 24.2 mph N/A   Mostly Cloudy
10:20 AM 35.6 °F 27.1 °F 28.4 °F 75% 29.80 in 10.0 mi WNW 12.7 mph 25.3 mph N/A   Scattered Clouds
10:53 AM 35.1 °F 25.9 °F 26.1 °F 70% 29.83 in 10.0 mi WNW 13.8 mph 24.2 mph N/A   Mostly Cloudy
11:53 AM 36.0 °F 25.3 °F 26.1 °F 67% 29.85 in 10.0 mi West 19.6 mph 26.5 mph N/A   Mostly Cloudy
12:53 PM 36.0 °F 26.0 °F 26.1 °F 67% 29.86 in 10.0 mi West 17.3 mph 28.8 mph N/A   Overcast
1:53 PM 37.0 °F 27.4 °F 25.0 °F 62% 29.87 in 10.0 mi West 17.3 mph 25.3 mph N/A   Overcast
2:53 PM 37.9 °F 30.0 °F 27.0 °F 65% 29.88 in 10.0 mi WNW 12.7 mph 20.7 mph N/A   Overcast
3:53 PM 37.9 °F 27.9 °F 28.0 °F 68% 29.88 in 10.0 mi West 19.6 mph 24.2 mph 0.00 in   Overcast
4:53 PM 36.0 °F 26.7 °F 28.9 °F 76% 29.90 in 10.0 mi West 15.0 mph - N/A   Overcast
5:00 PM 35.6 °F 26.2 °F 28.4 °F 75% 29.88 in 10.0 mi West 15.0 mph 21.9 mph N/A   Overcast
5:53 PM 36.0 °F 28.5 °F 28.0 °F 73% 29.91 in 7.0 mi WNW 10.4 mph - 0.00 in Snow Light Snow
6:32 PM 35.6 °F 26.6 °F 28.4 °F 75% 29.90 in 9.0 mi West 13.8 mph - 0.01 in   Overcast
7:53 PM 35.1 °F 27.9 °F 28.0 °F 76% 29.94 in 10.0 mi West 9.2 mph - N/A   Overcast
8:53 PM 35.1 °F 27.9 °F 27.0 °F 72% 29.97 in 10.0 mi West 9.2 mph - N/A   Overcast
9:53 PM 34.0 °F 28.8 °F 28.9 °F 82% 29.98 in 10.0 mi WNW 5.8 mph - N/A   Overcast
10:09 PM 33.8 °F 27.0 °F 30.2 °F 87% 29.96 in 10.0 mi WNW 8.1 mph - N/A   Overcast
10:23 PM 33.8 °F 27.0 °F 30.2 °F 87% 29.96 in 9.0 mi WNW 8.1 mph - N/A   Overcast
10:53 PM 33.1 °F 27.7 °F 28.9 °F 85% 29.99 in 10.0 mi West 5.8 mph - N/A   Overcast
11:53 PM 33.1 °F 28.7 °F 30.0 °F 89% 30.00 in 10.0 mi West 4.6 mph - N/A   Overcast